{"data":{"norad_id":68770,"epoch":"2026-05-25T04:00:03.998880Z","epoch_age_seconds":64658,"freshness":"FRESH","line1":"1 68770U 26086E   26145.16671295 -.01915149  00000+0 -23959-1 0  9995","line2":"2 68770  97.2848 182.0039 0001424  95.4416 201.3593 15.62949984  6074","mean_motion":15.62949984,"eccentricity":0.0001424,"inclination_deg":97.2848,"raan_deg":182.0039,"arg_perigee_deg":95.4416,"mean_anomaly_deg":201.3593,"bstar":-0.023959,"rev_number":607,"period_min":92.133466505093,"perigee_km":378.17878250404,"apogee_km":380.10325528382,"semimajor_km":6757.2780188939,"source":"CELESTRAK","updated_at":"2026-05-25T13:38:22.034671Z"}}